Regional Weather Roundup
Issued by NWS

Home | Current Version | Previous Version | Text Only | Print | Product List | Glossary Off
Versions: 1 2 3 4 5 6 7 8 9 10 11 12 13 14 15 16 17 18 19 20 21 22 23 24 25 26 27 28 29 30 31 32 33 34 35 36 37 38 39 40 41 42 43 44 45 46 47 48 49 50

000
ASUS43 KFSD 181902
RWRSD

WEATHER ROUNDUP FOR SOUTH DAKOTA
NATIONAL WEATHER SERVICE SIOUX FALLS SD
100 PM CST THU JAN 18 2018

NOTE: "FAIR" INDICATES FEW OR NO CLOUDS BELOW 12,000 FEET WITH NO
SIGNIFICANT WEATHER AND/OR OBSTRUCTIONS TO VISIBILITY.


SDZ001>005-009-010-012>017-182000-
NORTHWEST AND NORTH CENTRAL SOUTH DAKOTA

CITY           SKY/WX    TMP DP  RH WIND       PRES   REMARKS
BUFFALO          N/A     44  25  47 W18       29.73F
FAITH            N/A     42  26  53 SW8       29.79F
MOBRIDGE       CLOUDY    35  25  66 SE5       29.77F
$$

SDZ012>016-024>037-041>051-057-063-072>074-182000-
SOUTHWEST AND SOUTH CENTRAL SOUTH DAKOTA

CITY           SKY/WX    TMP DP  RH WIND       PRES   REMARKS
RAPID CTY ARPT CLOUDY    52  25  35 E3        29.84F
PIERRE         CLOUDY    37  25  61 SW5       29.83F
CUSTER         CLOUDY    53   2  12 W8        29.91F
ELLSWORTH AFB  CLOUDY    52  27  38 CALM      29.83F
PHILIP         CLOUDY    45  27  49 W12       29.85F
PINE RIDGE     CLOUDY    47  26  44 W10       29.93F
SPEARFISH        N/A     55  21  26 SW10      29.83F
WINNER         FAIR      45  28  51 SW6       29.86F
$$

SDZ004>011-016>023-039-040-182000-
NORTHEAST SOUTH DAKOTA

CITY           SKY/WX    TMP DP  RH WIND       PRES   REMARKS
ABERDEEN       PTSUNNY   36  27  69 S9        29.80F
WATERTOWN      CLOUDY    37  27  67 SW13      29.79F
BROOKINGS      CLOUDY    36  26  67 SW6       29.83F
SISSETON         N/A     43  26  51 W8        29.77F
$$

SDZ017-020-022-023-036>040-048>070-182000-
SOUTHEAST SOUTH DAKOTA

CITY           SKY/WX    TMP DP  RH WIND       PRES   REMARKS
SIOUX FALLS    CLOUDY    36  27  69 SW7       29.85F
HURON          CLOUDY    37  26  64 S6        29.84F
CHAMBERLAIN    CLOUDY    39  29  68 SW6       29.86F
MITCHELL       CLOUDY    39  28  64 SW9       29.86F
YANKTON        CLOUDY    41  24  51 S8        29.88F
$$

ABBREVIATIONS USED IN REMARKS
   TC - TEMPERATURE IN CELSIUS
  WCI - WIND CHILL INDEX
   HX - HEAT INDEX
  VSB - VISIBILITY





USA.gov is the U.S. government's official web portal to all federal, state and local government web resources and services.